Location: Kunchanapalle
(16.4623°N, 80.6176°E)
Time: 18:19:00
(UTC+00:00)

Cosmos 1190 Rocket - Pass Details

Date: 13 August 2020
Orbit: 756 x 780 km, 74.1° (Epoch: 17 September)

Event Time Altitude Azimuth Distance (km) Brightness Sun altitude
Rises 13:42:44 0° 185° (S) 3,215 7.1 -9.9°
Reaches altitude 10° 13:45:07 10° 182° (S) 2,294 6.3 -10.4°
Maximum altitude 13:50:15 62° 102° (ESE) 861 4.0 -11.6°
Drops below altitude 10° 13:55:26 10° 22° (NNE) 2,314 6.5 -12.8°
Sets 13:57:50 0° 19° (NNE) 3,245 7.3 -13.3°
